Time,TemperatureF,DewpointF,PressureIn,WindDirection,WindDirectionDegrees,WindSpeedMPH,WindSpeedGustMPH,Humidity,HourlyPrecipIn,Conditions,Clouds,dailyrainin,SoftwareType,DateUTC
2013-06-16 00:00:00,62.9,61.5,29.84,WSW,244,4.0,4.0,95,0.00,,,0.08,VWS V15.00,2013-06-16 05:00:00,
2013-06-16 00:01:00,60.4,59.3,29.83,WSW,243,4.0,5.0,96,0.00,,CLR,0.08,VWS V14.01,2013-06-16 05:01:00,
2013-06-16 00:06:00,59.9,58.8,29.83,WSW,242,5.0,5.0,96,0.00,,CLR,0.00,VWS V14.01,2013-06-16 05:06:00,
2013-06-16 00:11:00,59.8,58.7,29.83,WSW,240,5.0,6.0,96,0.00,,CLR,0.00,VWS V14.01,2013-06-16 05:11:00,
2013-06-16 00:15:00,62.6,61.5,29.83,WSW,243,4.0,5.0,96,0.00,,,0.08,VWS V15.00,2013-06-16 05:15:00,
2013-06-16 00:16:00,59.8,58.7,29.83,WSW,239,6.0,6.0,96,0.00,,CLR,0.00,VWS V14.01,2013-06-16 05:16:00,
2013-06-16 00:21:00,59.0,57.6,29.83,SW,236,6.0,7.0,95,0.00,,CLR,0.00,VWS V14.01,2013-06-16 05:21:00,
2013-06-16 00:26:00,58.7,57.6,29.83,SW,234,5.0,7.0,96,0.00,,CLR,0.00,VWS V14.01,2013-06-16 05:26:00,
2013-06-16 00:30:00,61.8,60.7,29.83,WSW,243,3.0,5.0,96,0.00,,,0.08,VWS V15.00,2013-06-16 05:30:00,
2013-06-16 00:31:00,58.7,57.6,29.83,SW,233,6.0,7.0,96,0.00,,CLR,0.00,VWS V14.01,2013-06-16 05:31:00,
2013-06-16 00:36:00,58.6,57.5,29.82,SW,233,5.0,6.0,96,0.00,,CLR,0.00,VWS V14.01,2013-06-16 05:36:00,
2013-06-16 00:41:00,58.6,57.2,29.82,SW,233,5.0,6.0,95,0.00,,SCT120,0.00,VWS V14.01,2013-06-16 05:41:00,
2013-06-16 00:45:00,61.3,60.2,29.83,WSW,243,4.0,5.0,96,0.00,,,0.08,VWS V15.00,2013-06-16 05:45:00,
2013-06-16 00:46:00,58.3,56.9,29.82,SW,232,6.0,6.0,95,0.00,,SCT120,0.00,VWS V14.01,2013-06-16 05:46:00,
2013-06-16 00:51:00,58.1,56.7,29.83,SW,230,7.0,7.0,95,0.00,,SCT120,0.00,VWS V14.01,2013-06-16 05:51:00,
2013-06-16 00:56:00,58.0,56.6,29.83,SW,229,6.0,7.0,95,0.00,,SCT120,0.00,VWS V14.01,2013-06-16 05:56:00,
2013-06-16 01:00:00,60.1,58.7,29.83,WSW,243,4.0,5.0,95,0.00,,,0.08,VWS V15.00,2013-06-16 06:00:00,
2013-06-16 01:01:00,58.0,56.3,29.83,SW,229,6.0,7.0,94,0.00,,SCT120,0.00,VWS V14.01,2013-06-16 06:01:00,
2013-06-16 01:06:00,57.8,56.1,29.83,SW,228,6.0,7.0,94,0.00,,SCT120,0.00,VWS V14.01,2013-06-16 06:06:00,
2013-06-16 01:11:00,57.6,55.9,29.83,SW,228,6.0,7.0,94,0.00,,SCT120,0.00,VWS V14.01,2013-06-16 06:11:00,
2013-06-16 01:15:00,59.6,58.5,29.83,WSW,239,6.0,6.0,96,0.00,,,0.00,VWS V15.00,2013-06-16 06:15:00,
2013-06-16 01:16:00,57.6,55.6,29.82,SW,228,5.0,7.0,93,0.00,,SCT120,0.00,VWS V14.01,2013-06-16 06:16:00,
2013-06-16 01:21:00,57.5,55.5,29.82,SW,228,6.0,6.0,93,0.00,,SCT120,0.00,VWS V14.01,2013-06-16 06:21:00,
2013-06-16 01:26:00,57.5,55.2,29.82,SW,228,7.0,7.0,92,0.00,,SCT120,0.00,VWS V14.01,2013-06-16 06:26:00,
2013-06-16 01:30:00,58.7,57.6,29.82,SW,233,6.0,7.0,96,0.00,,,0.00,VWS V15.00,2013-06-16 06:30:00,
2013-06-16 01:31:00,57.5,55.2,29.82,SW,228,6.0,7.0,92,0.00,,SCT120,0.00,VWS V14.01,2013-06-16 06:31:00,
2013-06-16 01:36:00,57.5,55.2,29.82,SW,228,6.0,6.0,92,0.00,,SCT120,0.00,VWS V14.01,2013-06-16 06:36:00,
2013-06-16 01:42:00,57.5,55.2,29.82,SW,228,5.0,6.0,92,0.00,,BKN120,0.00,VWS V14.01,2013-06-16 06:42:00,
2013-06-16 01:45:00,58.3,56.9,29.83,SW,232,6.0,6.0,95,0.00,,,0.00,VWS V15.00,2013-06-16 06:45:00,
2013-06-16 01:47:00,57.3,55.0,29.82,SW,228,5.0,6.0,92,0.00,,BKN120,0.00,VWS V14.01,2013-06-16 06:47:00,
2013-06-16 01:52:00,57.3,54.7,29.82,SW,228,6.0,6.0,91,0.00,,BKN120,0.00,VWS V14.01,2013-06-16 06:52:00,
2013-06-16 01:57:00,57.3,54.7,29.82,SW,228,6.0,6.0,91,0.00,,BKN120,0.00,VWS V14.01,2013-06-16 06:57:00,
2013-06-16 02:00:00,57.8,56.1,29.83,SW,229,6.0,7.0,94,0.00,,,0.00,VWS V15.00,2013-06-16 07:00:00,
2013-06-16 02:02:00,57.2,54.6,29.83,SW,228,6.0,6.0,91,0.00,,BKN120,0.00,VWS V14.01,2013-06-16 07:02:00,
2013-06-16 02:07:00,57.0,54.4,29.83,SW,228,6.0,7.0,91,0.00,,BKN120,0.00,VWS V14.01,2013-06-16 07:07:00,
2013-06-16 02:12:00,57.0,54.4,29.83,SW,228,5.0,7.0,91,0.00,,BKN120,0.00,VWS V14.01,2013-06-16 07:12:00,
2013-06-16 02:15:00,57.6,55.6,29.82,SW,228,6.0,7.0,93,0.00,,,0.00,VWS V15.00,2013-06-16 07:15:00,
2013-06-16 02:17:00,56.9,54.6,29.82,SW,228,5.0,7.0,92,0.00,,BKN120,0.00,VWS V14.01,2013-06-16 07:17:00,
2013-06-16 02:22:00,56.9,54.6,29.82,SW,228,5.0,6.0,92,0.00,,BKN120,0.00,VWS V14.01,2013-06-16 07:22:00,
2013-06-16 02:27:00,56.9,54.6,29.82,SW,228,5.0,6.0,92,0.00,,BKN120,0.00,VWS V14.01,2013-06-16 07:27:00,
2013-06-16 02:30:00,57.5,55.2,29.82,SW,228,6.0,7.0,92,0.00,,,0.00,VWS V15.00,2013-06-16 07:30:00,
2013-06-16 02:32:00,56.9,54.6,29.82,SW,228,5.0,6.0,92,0.00,,BKN120,0.00,VWS V14.01,2013-06-16 07:32:00,
2013-06-16 02:37:00,56.7,54.4,29.82,SW,228,5.0,5.0,92,0.00,,BKN120,0.00,VWS V14.01,2013-06-16 07:37:00,
2013-06-16 02:42:00,56.7,54.7,29.82,SW,228,5.0,6.0,93,0.00,,BKN120,0.00,VWS V14.01,2013-06-16 07:42:00,
2013-06-16 02:45:00,57.3,55.0,29.82,SW,228,5.0,6.0,92,0.00,,,0.00,VWS V15.00,2013-06-16 07:45:00,
2013-06-16 02:47:00,56.6,54.3,29.83,SW,228,6.0,7.0,92,0.00,,BKN120,0.00,VWS V14.01,2013-06-16 07:47:00,
2013-06-16 02:52:00,56.3,54.0,29.83,SW,227,5.0,7.0,92,0.00,,BKN120,0.00,VWS V14.01,2013-06-16 07:52:00,
2013-06-16 02:57:00,56.3,54.3,29.83,SW,227,6.0,10.0,93,0.00,,BKN120,0.00,VWS V14.01,2013-06-16 07:57:00,
2013-06-16 03:00:00,57.2,54.6,29.83,SW,228,6.0,6.0,91,0.00,,,0.00,VWS V15.00,2013-06-16 08:00:00,
2013-06-16 03:02:00,56.2,53.9,29.82,SW,227,6.0,10.0,92,0.00,,BKN120,0.00,VWS V14.01,2013-06-16 08:02:00,
2013-06-16 03:07:00,55.9,53.6,29.82,SW,227,5.0,8.0,92,0.00,,BKN120,0.00,VWS V14.01,2013-06-16 08:07:00,
2013-06-16 03:12:00,55.7,53.4,29.82,SW,227,5.0,8.0,92,0.00,,BKN120,0.00,VWS V14.01,2013-06-16 08:12:00,
2013-06-16 03:15:00,56.9,54.6,29.82,SW,228,6.0,7.0,92,0.00,,,0.00,VWS V15.00,2013-06-16 08:15:00,
2013-06-16 03:17:00,55.7,53.4,29.83,SW,227,3.0,8.0,92,0.00,,BKN120,0.00,VWS V14.01,2013-06-16 08:17:00,
2013-06-16 03:22:00,55.7,53.4,29.83,SW,227,2.0,6.0,92,0.00,,BKN120,0.00,VWS V14.01,2013-06-16 08:22:00,
2013-06-16 03:27:00,55.9,53.3,29.83,SW,227,3.0,6.0,91,0.00,,BKN120,0.00,VWS V14.01,2013-06-16 08:27:00,
2013-06-16 03:30:00,56.9,54.6,29.82,SW,228,5.0,6.0,92,0.00,,,0.00,VWS V15.00,2013-06-16 08:30:00,
2013-06-16 03:32:00,55.9,53.3,29.83,SW,227,5.0,5.0,91,0.00,,BKN120,0.00,VWS V14.01,2013-06-16 08:32:00,
2013-06-16 03:37:00,56.0,53.1,29.83,SW,227,4.0,5.0,90,0.00,,BKN120,0.00,VWS V14.01,2013-06-16 08:37:00,
2013-06-16 03:42:00,56.2,53.0,29.83,SW,227,3.0,5.0,89,0.00,,SCT110,0.00,VWS V14.01,2013-06-16 08:42:00,
2013-06-16 03:45:00,56.6,54.3,29.83,SW,228,5.0,7.0,92,0.00,,,0.00,VWS V15.00,2013-06-16 08:45:00,
2013-06-16 03:47:00,56.2,52.7,29.83,SW,227,4.0,6.0,88,0.00,,SCT110,0.00,VWS V14.01,2013-06-16 08:47:00,
2013-06-16 03:52:00,56.0,52.5,29.83,SW,227,5.0,6.0,88,0.00,,SCT110,0.00,VWS V14.01,2013-06-16 08:52:00,
2013-06-16 03:57:00,55.9,52.4,29.83,SW,227,3.0,6.0,88,0.00,,SCT110,0.00,VWS V14.01,2013-06-16 08:57:00,
2013-06-16 04:00:00,56.2,53.9,29.82,SW,227,6.0,10.0,92,0.00,,,0.00,VWS V15.00,2013-06-16 09:00:00,
2013-06-16 04:02:00,55.7,52.2,29.83,SW,227,5.0,5.0,88,0.00,,SCT120,0.00,VWS V14.01,2013-06-16 09:02:00,
2013-06-16 04:07:00,55.6,52.1,29.83,SW,227,4.0,5.0,88,0.00,,SCT120,0.00,VWS V14.01,2013-06-16 09:07:00,
2013-06-16 04:12:00,55.3,52.1,29.83,SW,227,5.0,7.0,89,0.00,,SCT120,0.00,VWS V14.01,2013-06-16 09:12:00,
2013-06-16 04:15:00,55.7,53.4,29.83,SW,227,3.0,8.0,92,0.00,,,0.00,VWS V15.00,2013-06-16 09:15:00,
2013-06-16 04:17:00,55.3,52.1,29.83,SW,227,5.0,5.0,89,0.00,,SCT120,0.00,VWS V14.01,2013-06-16 09:17:00,
2013-06-16 04:22:00,55.1,51.9,29.83,SW,227,6.0,6.0,89,0.00,,SCT120,0.00,VWS V14.01,2013-06-16 09:22:00,
2013-06-16 04:28:00,55.1,51.9,29.83,SW,227,4.0,6.0,89,0.00,,SCT120,0.00,VWS V14.01,2013-06-16 09:28:00,
2013-06-16 04:30:00,55.9,53.3,29.83,SW,227,3.0,6.0,91,0.00,,,0.00,VWS V15.00,2013-06-16 09:30:00,
2013-06-16 04:33:00,55.1,51.6,29.83,SW,227,4.0,5.0,88,0.00,,SCT120,0.00,VWS V14.01,2013-06-16 09:33:00,
2013-06-16 04:38:00,55.0,51.5,29.83,SW,227,5.0,5.0,88,0.00,,SCT120,0.00,VWS V14.01,2013-06-16 09:38:00,
2013-06-16 04:43:00,54.8,51.3,29.83,SW,227,4.0,6.0,88,0.00,,SCT120,0.00,VWS V14.01,2013-06-16 09:43:00,
2013-06-16 04:45:00,56.2,53.0,29.83,SW,227,5.0,5.0,89,0.00,,,0.00,VWS V15.00,2013-06-16 09:45:00,
2013-06-16 04:48:00,54.8,51.3,29.84,SW,227,5.0,5.0,88,0.00,,SCT120,0.00,VWS V14.01,2013-06-16 09:48:00,
2013-06-16 04:53:00,54.8,51.3,29.84,SW,227,5.0,5.0,88,0.00,,SCT120,0.00,VWS V14.01,2013-06-16 09:53:00,
2013-06-16 04:58:00,54.7,50.9,29.84,SW,227,4.0,6.0,87,0.00,,SCT120,0.00,VWS V14.01,2013-06-16 09:58:00,
2013-06-16 05:00:00,55.7,52.2,29.83,SW,227,4.0,6.0,88,0.00,,,0.00,VWS V15.00,2013-06-16 10:00:00,
2013-06-16 05:03:00,55.0,51.2,29.84,SW,227,4.0,5.0,87,0.00,,SCT110,0.00,VWS V14.01,2013-06-16 10:03:00,
2013-06-16 05:08:00,55.0,50.9,29.84,SW,227,3.0,5.0,86,0.00,,SCT110,0.00,VWS V14.01,2013-06-16 10:08:00,
2013-06-16 05:13:00,54.8,50.7,29.84,SW,227,4.0,6.0,86,0.00,,SCT110,0.00,VWS V14.01,2013-06-16 10:13:00,
2013-06-16 05:15:00,55.3,52.1,29.83,SW,227,5.0,7.0,89,0.00,,,0.00,VWS V15.00,2013-06-16 10:15:00,
2013-06-16 05:18:00,54.8,50.7,29.85,SW,227,4.0,5.0,86,0.00,,SCT110,0.00,VWS V14.01,2013-06-16 10:18:00,
2013-06-16 05:23:00,54.8,50.7,29.85,SW,227,4.0,5.0,86,0.00,,SCT110,0.00,VWS V14.01,2013-06-16 10:23:00,
2013-06-16 05:28:00,54.8,50.7,29.85,SW,227,4.0,5.0,86,0.00,,SCT110,0.00,VWS V14.01,2013-06-16 10:28:00,
2013-06-16 05:30:00,55.1,51.6,29.83,SW,227,5.0,6.0,88,0.00,,,0.00,VWS V15.00,2013-06-16 10:30:00,
2013-06-16 05:33:00,54.7,50.6,29.85,SW,227,5.0,6.0,86,0.00,,SCT110,0.00,VWS V14.01,2013-06-16 10:33:00,
2013-06-16 05:38:00,54.4,50.3,29.85,SW,227,6.0,7.0,86,0.00,,SCT110,0.00,VWS V14.01,2013-06-16 10:38:00,
2013-06-16 05:43:00,54.1,50.3,29.85,SW,226,5.0,7.0,87,0.00,,BKN120,0.00,VWS V14.01,2013-06-16 10:43:00,
2013-06-16 05:45:00,54.8,51.3,29.84,SW,227,5.0,6.0,88,0.00,,,0.00,VWS V15.00,2013-06-16 10:45:00,
2013-06-16 05:48:00,54.1,50.3,29.86,SW,226,4.0,5.0,87,0.00,,BKN120,0.00,VWS V14.01,2013-06-16 10:48:00,
2013-06-16 05:53:00,54.1,50.0,29.86,SW,226,5.0,6.0,86,0.00,,BKN120,0.00,VWS V14.01,2013-06-16 10:53:00,
2013-06-16 05:58:00,54.1,50.0,29.86,SW,226,4.0,6.0,86,0.00,,BKN120,0.00,VWS V14.01,2013-06-16 10:58:00,
2013-06-16 06:00:00,55.0,51.2,29.84,SW,227,4.0,7.0,87,0.00,,,0.00,VWS V15.00,2013-06-16 11:00:00,
2013-06-16 06:03:00,54.1,50.0,29.85,SW,226,3.0,4.0,86,0.00,,BKN110,0.00,VWS V14.01,2013-06-16 11:03:00,
2013-06-16 06:08:00,54.1,50.0,29.85,SW,226,4.0,4.0,86,0.00,,BKN110,0.00,VWS V14.01,2013-06-16 11:08:00,
2013-06-16 06:13:00,54.4,50.3,29.85,SW,226,4.0,5.0,86,0.00,,BKN110,0.00,VWS V14.01,2013-06-16 11:13:00,
2013-06-16 06:15:00,54.8,50.7,29.85,SW,227,5.0,6.0,86,0.00,,,0.00,VWS V15.00,2013-06-16 11:15:00,
2013-06-16 06:18:00,54.4,50.3,29.85,SW,226,4.0,4.0,86,0.00,,BKN110,0.00,VWS V14.01,2013-06-16 11:18:00,
2013-06-16 06:23:00,54.4,50.6,29.85,SW,226,4.0,5.0,87,0.00,,BKN110,0.00,VWS V14.01,2013-06-16 11:23:00,
2013-06-16 06:28:00,54.5,50.7,29.85,SW,226,4.0,6.0,87,0.00,,BKN110,0.00,VWS V14.01,2013-06-16 11:28:00,
2013-06-16 06:30:00,54.7,50.6,29.85,SW,227,5.0,6.0,86,0.00,,,0.00,VWS V15.00,2013-06-16 11:30:00,
2013-06-16 06:33:00,54.8,51.0,29.86,SW,226,6.0,6.0,87,0.00,,BKN110,0.00,VWS V14.01,2013-06-16 11:33:00,
2013-06-16 06:38:00,55.3,51.5,29.86,SW,226,5.0,6.0,87,0.00,,BKN110,0.00,VWS V14.01,2013-06-16 11:38:00,
2013-06-16 06:43:00,55.6,51.8,29.86,SW,226,5.0,6.0,87,0.00,,SCT100,0.00,VWS V14.01,2013-06-16 11:43:00,
2013-06-16 06:45:00,54.1,50.3,29.86,SW,226,5.0,7.0,87,0.00,,,0.00,VWS V15.00,2013-06-16 11:45:00,
2013-06-16 06:48:00,56.0,52.2,29.86,SW,226,5.0,6.0,87,0.00,,SCT100,0.00,VWS V14.01,2013-06-16 11:48:00,
2013-06-16 06:53:00,56.3,52.5,29.86,SW,226,5.0,6.0,87,0.00,,SCT100,0.00,VWS V14.01,2013-06-16 11:53:00,
2013-06-16 06:58:00,56.6,52.5,29.86,SW,226,4.0,6.0,86,0.00,,SCT100,0.00,VWS V14.01,2013-06-16 11:58:00,
2013-06-16 07:00:00,54.1,50.0,29.85,SW,226,3.0,6.0,86,0.00,,,0.00,VWS V15.00,2013-06-16 12:00:00,
2013-06-16 07:03:00,56.7,52.6,29.86,SW,226,5.0,5.0,86,0.00,,SCT100,0.00,VWS V14.01,2013-06-16 12:03:00,
2013-06-16 07:08:00,57.2,53.1,29.86,SW,226,1.0,5.0,86,0.00,,SCT100,0.00,VWS V14.01,2013-06-16 12:08:00,
2013-06-16 07:13:00,57.6,53.1,29.86,SW,226,2.0,5.0,85,0.00,,SCT100,0.00,VWS V14.01,2013-06-16 12:13:00,
2013-06-16 07:15:00,54.4,50.6,29.85,SW,226,3.0,5.0,87,0.00,,,0.00,VWS V15.00,2013-06-16 12:15:00,
2013-06-16 07:18:00,58.0,53.8,29.86,SW,226,0.0,4.0,86,0.00,,SCT100,0.00,VWS V14.01,2013-06-16 12:18:00,
2013-06-16 07:23:00,58.4,54.2,29.86,SW,226,0.0,5.0,86,0.00,,SCT100,0.00,VWS V14.01,2013-06-16 12:23:00,
2013-06-16 07:29:00,58.7,53.9,29.86,SW,226,0.0,5.0,84,0.00,,SCT100,0.00,VWS V14.01,2013-06-16 12:29:00,
2013-06-16 07:30:00,54.8,51.0,29.86,SW,226,5.0,6.0,87,0.00,,,0.00,VWS V15.00,2013-06-16 12:30:00,
2013-06-16 07:34:00,59.0,53.8,29.86,SW,226,0.0,0.0,83,0.00,,CLR,0.00,VWS V14.01,2013-06-16 12:34:00,
2013-06-16 07:39:00,59.2,53.4,29.86,SW,226,0.0,0.0,81,0.00,,CLR,0.00,VWS V14.01,2013-06-16 12:39:00,
2013-06-16 07:44:00,59.8,53.3,29.86,SW,228,0.0,6.0,79,0.00,,CLR,0.00,VWS V14.01,2013-06-16 12:44:00,
2013-06-16 07:45:00,55.9,52.1,29.86,SW,226,6.0,6.0,87,0.00,,,0.00,VWS V15.00,2013-06-16 12:45:00,
2013-06-16 07:49:00,60.4,53.2,29.86,SW,229,0.0,5.0,77,0.00,,CLR,0.00,VWS V14.01,2013-06-16 12:49:00,
2013-06-16 07:54:00,61.2,53.9,29.86,SW,232,4.0,6.0,77,0.00,,CLR,0.00,VWS V14.01,2013-06-16 12:54:00,
2013-06-16 07:59:00,61.5,54.2,29.86,SW,234,0.0,6.0,77,0.00,,CLR,0.00,VWS V14.01,2013-06-16 12:59:00,
2013-06-16 08:00:00,56.7,52.6,29.86,SW,226,4.0,6.0,86,0.00,,,0.00,VWS V15.00,2013-06-16 13:00:00,
2013-06-16 08:04:00,61.6,54.0,29.86,SW,234,0.0,0.0,76,0.00,,SCT110,0.00,VWS V14.01,2013-06-16 13:04:00,
2013-06-16 08:09:00,62.3,54.3,29.86,SW,235,0.0,0.0,75,0.00,,SCT110,0.00,VWS V14.01,2013-06-16 13:09:00,
2013-06-16 08:14:00,62.7,54.3,29.86,SW,235,0.0,0.0,74,0.00,,SCT110,0.00,VWS V14.01,2013-06-16 13:14:00,
2013-06-16 08:15:00,58.0,53.5,29.86,SW,226,3.0,5.0,85,0.00,,,0.00,VWS V15.00,2013-06-16 13:15:00,
2013-06-16 08:19:00,63.1,54.7,29.86,SW,236,5.0,5.0,74,0.00,,SCT110,0.00,VWS V14.01,2013-06-16 13:19:00,
2013-06-16 08:24:00,63.5,55.1,29.86,WSW,255,5.0,9.0,74,0.00,,SCT110,0.00,VWS V14.01,2013-06-16 13:24:00,
2013-06-16 08:29:00,63.9,54.7,29.86,WSW,257,3.0,9.0,72,0.00,,SCT110,0.00,VWS V14.01,2013-06-16 13:29:00,
2013-06-16 08:30:00,58.9,53.8,29.86,SW,226,0.0,5.0,83,0.00,,,0.00,VWS V15.00,2013-06-16 13:30:00,
2013-06-16 08:34:00,64.5,55.7,29.86,West,260,6.0,7.0,73,0.00,,SCT110,0.00,VWS V14.01,2013-06-16 13:34:00,
2013-06-16 08:39:00,65.0,55.4,29.86,West,267,5.0,8.0,71,0.00,,SCT110,0.00,VWS V14.01,2013-06-16 13:39:00,
2013-06-16 08:44:00,65.5,54.7,29.86,West,267,0.0,8.0,68,0.00,,SCT120,0.00,VWS V14.01,2013-06-16 13:44:00,
2013-06-16 08:45:00,60.2,53.7,29.86,SW,228,0.0,6.0,79,0.00,,,0.00,VWS V15.00,2013-06-16 13:45:00,
2013-06-16 08:49:00,66.0,55.5,29.86,West,267,2.0,3.0,69,0.00,,SCT120,0.00,VWS V14.01,2013-06-16 13:49:00,
2013-06-16 08:54:00,66.4,55.5,29.86,West,267,3.0,7.0,68,0.00,,SCT120,0.00,VWS V14.01,2013-06-16 13:54:00,
2013-06-16 08:59:00,66.9,54.3,29.86,West,277,3.0,7.0,64,0.00,,SCT120,0.00,VWS V14.01,2013-06-16 13:59:00,
2013-06-16 09:00:00,61.6,54.3,29.86,SW,234,0.0,6.0,77,0.00,,,0.00,VWS V15.00,2013-06-16 14:00:00,
2013-06-16 09:04:00,67.6,55.8,29.85,West,278,5.0,7.0,66,0.00,,CLR,0.00,VWS V14.01,2013-06-16 14:04:00,
2013-06-16 09:09:00,68.1,55.0,29.85,West,280,3.0,7.0,63,0.00,,CLR,0.00,VWS V14.01,2013-06-16 14:09:00,
2013-06-16 09:14:00,68.8,55.3,29.85,West,280,1.0,7.0,62,0.00,,CLR,0.00,VWS V14.01,2013-06-16 14:14:00,
2013-06-16 09:15:00,62.9,54.9,29.86,SW,235,0.0,0.0,75,0.00,,,0.00,VWS V15.00,2013-06-16 14:15:00,
2013-06-16 09:19:00,69.4,56.7,29.85,West,280,5.0,5.0,64,0.00,,CLR,0.00,VWS V14.01,2013-06-16 14:19:00,
2013-06-16 09:24:00,69.9,56.3,29.85,West,280,0.0,5.0,62,0.00,,CLR,0.00,VWS V14.01,2013-06-16 14:24:00,
2013-06-16 09:29:00,70.6,57.4,29.85,West,280,0.0,5.0,63,0.00,,CLR,0.00,VWS V14.01,2013-06-16 14:29:00,
2013-06-16 09:30:00,64.3,54.7,29.86,WSW,257,0.0,9.0,71,0.00,,,0.00,VWS V15.00,2013-06-16 14:30:00,
2013-06-16 09:34:00,70.9,55.9,29.85,West,280,2.0,4.0,59,0.00,,CLR,0.00,VWS V14.01,2013-06-16 14:34:00,
2013-06-16 09:39:00,71.5,55.5,29.85,West,280,0.0,5.0,57,0.00,,CLR,0.00,VWS V14.01,2013-06-16 14:39:00,
2013-06-16 09:44:00,72.0,54.5,29.85,West,276,4.0,7.0,54,0.00,,CLR,0.00,VWS V14.01,2013-06-16 14:44:00,
2013-06-16 09:45:00,65.6,54.8,29.86,West,267,0.0,8.0,68,0.00,,,0.00,VWS V15.00,2013-06-16 14:45:00,
2013-06-16 09:49:00,72.7,54.6,29.85,West,267,4.0,10.0,53,0.00,,CLR,0.00,VWS V14.01,2013-06-16 14:49:00,
2013-06-16 09:54:00,73.2,56.1,29.85,West,270,4.0,10.0,55,0.00,,CLR,0.00,VWS V14.01,2013-06-16 14:54:00,
2013-06-16 09:59:00,73.9,57.7,29.85,WNW,282,8.0,10.0,57,0.00,,CLR,0.00,VWS V14.01,2013-06-16 14:59:00,
2013-06-16 10:00:00,67.3,54.7,29.85,West,277,4.0,7.0,64,0.00,,,0.00,VWS V15.00,2013-06-16 15:00:00,
2013-06-16 10:04:00,74.6,56.4,29.85,WNW,282,0.0,6.0,53,0.00,,CLR,0.00,VWS V14.01,2013-06-16 15:04:00,
2013-06-16 10:09:00,74.9,55.0,29.85,West,281,2.0,11.0,50,0.00,,CLR,0.00,VWS V14.01,2013-06-16 15:09:00,
2013-06-16 10:14:00,75.6,57.8,29.85,West,268,3.0,11.0,54,0.00,,CLR,0.00,VWS V14.01,2013-06-16 15:14:00,
2013-06-16 10:15:00,69.3,56.6,29.85,West,280,0.0,7.0,64,0.00,,,0.00,VWS V15.00,2013-06-16 15:15:00,
2013-06-16 10:20:00,76.1,54.4,29.85,West,277,0.0,8.0,47,0.00,,CLR,0.00,VWS V14.01,2013-06-16 15:20:00,
2013-06-16 10:25:00,76.8,54.5,29.85,WNW,292,7.0,13.0,46,0.00,,CLR,0.00,VWS V14.01,2013-06-16 15:25:00,
2013-06-16 10:30:00,77.4,54.4,29.85,WNW,290,7.0,19.0,45,0.00,,CLR,0.00,VWS V14.01,2013-06-16 15:30:00,
2013-06-16 10:35:00,78.3,55.8,29.85,WNW,300,6.0,11.0,46,0.00,,CLR,0.00,VWS V14.01,2013-06-16 15:35:00,
2013-06-16 10:40:00,78.6,55.5,29.85,WNW,292,3.0,12.0,45,0.00,,CLR,0.00,VWS V14.01,2013-06-16 15:40:00,
2013-06-16 10:45:00,79.2,54.2,29.85,West,270,6.0,12.0,42,0.00,,CLR,0.00,VWS V14.01,2013-06-16 15:45:00,
2013-06-16 10:50:00,79.6,56.4,29.85,WNW,286,11.0,11.0,45,0.00,,CLR,0.00,VWS V14.01,2013-06-16 15:50:00,
2013-06-16 10:55:00,79.9,54.1,29.85,WNW,291,5.0,11.0,41,0.00,,CLR,0.00,VWS V14.01,2013-06-16 15:55:00,
2013-06-16 11:00:00,79.9,56.7,29.85,WNW,293,10.0,12.0,45,0.00,,CLR,0.00,VWS V14.01,2013-06-16 16:00:00,
2013-06-16 11:05:00,80.1,50.8,29.85,NW,304,6.0,13.0,36,0.00,,CLR,0.00,VWS V14.01,2013-06-16 16:05:00,
2013-06-16 11:10:00,80.1,53.6,29.85,WNW,298,14.0,16.0,40,0.00,,CLR,0.00,VWS V14.01,2013-06-16 16:10:00,
2013-06-16 11:15:00,80.5,53.3,29.85,NW,319,4.0,17.0,39,0.00,,CLR,0.00,VWS V14.01,2013-06-16 16:15:00,
2013-06-16 11:20:00,80.9,51.5,29.85,NW,309,5.0,14.0,36,0.00,,CLR,0.00,VWS V14.01,2013-06-16 16:20:00,
2013-06-16 11:25:00,81.1,50.9,29.85,NW,324,7.0,16.0,35,0.00,,CLR,0.00,VWS V14.01,2013-06-16 16:25:00,
2013-06-16 11:30:00,81.4,49.6,29.85,WNW,293,4.0,16.0,33,0.00,,CLR,0.00,VWS V14.01,2013-06-16 16:30:00,
2013-06-16 11:35:00,80.9,50.7,29.85,NW,312,1.0,11.0,35,0.00,,CLR,0.00,VWS V14.01,2013-06-16 16:35:00,
2013-06-16 11:40:00,81.1,53.1,29.85,WNW,287,15.0,15.0,38,0.00,,CLR,0.00,VWS V14.01,2013-06-16 16:40:00,
2013-06-16 11:45:00,80.7,51.3,29.85,WNW,288,6.0,16.0,36,0.00,,CLR,0.00,VWS V14.01,2013-06-16 16:45:00,
2013-06-16 11:50:00,81.4,49.6,29.85,WNW,286,11.0,17.0,33,0.00,,CLR,0.00,VWS V14.01,2013-06-16 16:50:00,
2013-06-16 11:55:00,80.7,50.5,29.85,NW,308,11.0,17.0,35,0.00,,CLR,0.00,VWS V14.01,2013-06-16 16:55:00,
2013-06-16 12:00:00,81.4,51.9,29.85,West,275,21.0,21.0,36,0.00,,CLR,0.00,VWS V14.01,2013-06-16 17:00:00,
2013-06-16 12:05:00,81.4,50.4,29.84,WSW,253,18.0,22.0,34,0.00,,CLR,0.00,VWS V14.01,2013-06-16 17:05:00,
2013-06-16 12:10:00,81.2,47.7,29.84,NW,305,12.0,22.0,31,0.00,,CLR,0.00,VWS V14.01,2013-06-16 17:10:00,
2013-06-16 12:15:00,81.8,49.9,29.84,WNW,291,16.0,22.0,33,0.00,,CLR,0.00,VWS V14.01,2013-06-16 17:15:00,
2013-06-16 12:20:00,82.2,46.8,29.84,WNW,282,17.0,18.0,29,0.00,,CLR,0.00,VWS V14.01,2013-06-16 17:20:00,
2013-06-16 12:25:00,83.0,47.5,29.84,NW,308,2.0,19.0,29,0.00,,CLR,0.00,VWS V14.01,2013-06-16 17:25:00,
2013-06-16 12:30:00,83.6,47.1,29.84,WNW,292,11.0,19.0,28,0.00,,CLR,0.00,VWS V14.01,2013-06-16 17:30:00,
2013-06-16 12:35:00,84.0,50.2,29.83,NW,307,13.0,15.0,31,0.00,,CLR,0.00,VWS V14.01,2013-06-16 17:35:00,
2013-06-16 12:40:00,83.8,49.1,29.83,WNW,293,7.0,21.0,30,0.00,,CLR,0.00,VWS V14.01,2013-06-16 17:40:00,
2013-06-16 12:45:00,83.4,49.6,29.83,WNW,291,3.0,21.0,31,0.00,,CLR,0.00,VWS V14.01,2013-06-16 17:45:00,
2013-06-16 12:50:00,83.6,48.0,29.83,West,275,18.0,22.0,29,0.00,,CLR,0.00,VWS V14.01,2013-06-16 17:50:00,
2013-06-16 12:55:00,83.4,50.5,29.83,WNW,284,9.0,22.0,32,0.00,,CLR,0.00,VWS V14.01,2013-06-16 17:55:00,
2013-06-16 13:00:00,83.6,46.1,29.83,WNW,291,5.0,22.0,27,0.00,,CLR,0.00,VWS V14.01,2013-06-16 18:00:00,
2013-06-16 13:06:00,84.3,46.7,29.83,WNW,293,11.0,19.0,27,0.00,,CLR,0.00,VWS V14.01,2013-06-16 18:06:00,
2013-06-16 13:11:00,84.3,49.5,29.83,WNW,293,7.0,22.0,30,0.00,,CLR,0.00,VWS V14.01,2013-06-16 18:11:00,
2013-06-16 13:15:00,82.0,50.1,29.84,WNW,289,17.0,22.0,33,0.00,,,0.00,VWS V15.00,2013-06-16 18:15:00,
2013-06-16 13:16:00,84.0,50.2,29.83,WNW,303,15.0,22.0,31,0.00,,CLR,0.00,VWS V14.01,2013-06-16 18:16:00,
2013-06-16 13:21:00,83.8,50.8,29.83,West,272,5.0,16.0,32,0.00,,CLR,0.00,VWS V14.01,2013-06-16 18:21:00,
2013-06-16 13:26:00,84.0,47.4,29.83,WNW,292,11.0,20.0,28,0.00,,CLR,0.00,VWS V14.01,2013-06-16 18:26:00,
2013-06-16 13:30:00,83.8,50.8,29.83,NNW,338,10.0,19.0,32,0.00,,,0.00,VWS V15.00,2013-06-16 18:30:00,
2013-06-16 13:31:00,84.1,49.3,29.83,WNW,291,5.0,20.0,30,0.00,,CLR,0.00,VWS V14.01,2013-06-16 18:31:00,
2013-06-16 13:36:00,84.7,48.0,29.83,WNW,296,5.0,21.0,28,0.00,,CLR,0.00,VWS V14.01,2013-06-16 18:36:00,
2013-06-16 13:41:00,84.9,47.2,29.83,WNW,284,5.0,21.0,27,0.00,,SCT080,0.00,VWS V14.01,2013-06-16 18:41:00,
2013-06-16 13:45:00,83.6,47.1,29.83,WNW,291,7.0,21.0,28,0.00,,,0.00,VWS V15.00,2013-06-16 18:45:00,
2013-06-16 13:46:00,85.3,47.6,29.83,WSW,253,14.0,21.0,27,0.00,,SCT080,0.00,VWS V14.01,2013-06-16 18:46:00,
2013-06-16 13:51:00,85.5,47.7,29.83,West,267,16.0,23.0,27,0.00,,SCT080,0.00,VWS V14.01,2013-06-16 18:51:00,
2013-06-16 13:56:00,83.8,48.2,29.83,WNW,282,6.0,23.0,29,0.00,,SCT080,0.00,VWS V14.01,2013-06-16 18:56:00,
2013-06-16 14:00:00,83.6,47.1,29.83,WNW,286,6.0,22.0,28,0.00,,,0.00,VWS V15.00,2013-06-16 19:00:00,
2013-06-16 14:01:00,83.8,47.2,29.83,WNW,292,4.0,23.0,28,0.00,,SCT080,0.00,VWS V14.01,2013-06-16 19:01:00,
2013-06-16 14:06:00,84.5,47.8,29.83,WNW,292,12.0,18.0,28,0.00,,SCT080,0.00,VWS V14.01,2013-06-16 19:06:00,
2013-06-16 14:11:00,83.4,46.0,29.83,WNW,292,12.0,23.0,27,0.00,,SCT080,0.00,VWS V14.01,2013-06-16 19:11:00,
2013-06-16 14:15:00,84.0,49.3,29.83,WNW,300,12.0,22.0,30,0.00,,,0.00,VWS V15.00,2013-06-16 19:15:00,
2013-06-16 14:16:00,84.0,47.4,29.83,NW,320,9.0,23.0,28,0.00,,SCT080,0.00,VWS V14.01,2013-06-16 19:16:00,
2013-06-16 14:21:00,84.9,48.2,29.83,WNW,293,18.0,18.0,28,0.00,,SCT080,0.00,VWS V14.01,2013-06-16 19:21:00,
2013-06-16 14:26:00,84.9,50.0,29.83,WNW,292,14.0,29.0,30,0.00,,SCT080,0.00,VWS V14.01,2013-06-16 19:26:00,
2013-06-16 14:30:00,84.5,51.4,29.83,WNW,290,19.0,20.0,32,0.00,,,0.00,VWS V15.00,2013-06-16 19:30:00,
2013-06-16 14:31:00,85.5,48.7,29.83,NW,324,9.0,29.0,28,0.00,,SCT080,0.00,VWS V14.01,2013-06-16 19:31:00,
2013-06-16 14:36:00,85.7,47.9,29.83,WNW,293,13.0,23.0,27,0.00,,SCT080,0.00,VWS V14.01,2013-06-16 19:36:00,
2013-06-16 14:41:00,85.5,47.7,29.83,WNW,288,2.0,23.0,27,0.00,,SCT090,0.00,VWS V14.01,2013-06-16 19:41:00,
2013-06-16 14:45:00,85.1,47.4,29.83,WNW,291,9.0,21.0,27,0.00,,,0.00,VWS V15.00,2013-06-16 19:45:00,
2013-06-16 14:46:00,85.3,45.5,29.83,NW,304,21.0,23.0,25,0.00,,SCT090,0.00,VWS V14.01,2013-06-16 19:46:00,
2013-06-16 14:51:00,85.1,50.2,29.83,West,277,18.0,19.0,30,0.00,,SCT090,0.00,VWS V14.01,2013-06-16 19:51:00,
2013-06-16 14:56:00,85.5,47.7,29.83,WNW,283,9.0,19.0,27,0.00,,SCT090,0.00,VWS V14.01,2013-06-16 19:56:00,
2013-06-16 15:00:00,84.0,47.4,29.83,West,262,11.0,23.0,28,0.00,,,0.00,VWS V15.00,2013-06-16 20:00:00,
2013-06-16 15:01:00,85.9,45.0,29.83,West,265,22.0,25.0,24,0.00,,SCT090,0.00,VWS V14.01,2013-06-16 20:01:00,
2013-06-16 15:06:00,85.9,46.0,29.83,NW,305,9.0,22.0,25,0.00,,SCT090,0.00,VWS V14.01,2013-06-16 20:06:00,
2013-06-16 15:11:00,85.9,45.0,29.83,WSW,242,22.0,22.0,24,0.00,,SCT090,0.00,VWS V14.01,2013-06-16 20:11:00,
2013-06-16 15:15:00,84.3,49.5,29.83,NW,315,16.0,23.0,30,0.00,,,0.00,VWS V15.00,2013-06-16 20:15:00,
2013-06-16 15:16:00,85.9,45.0,29.83,WNW,284,23.0,23.0,24,0.00,,SCT090,0.00,VWS V14.01,2013-06-16 20:16:00,
2013-06-16 15:21:00,86.3,45.3,29.83,West,277,18.0,20.0,24,0.00,,SCT090,0.00,VWS V14.01,2013-06-16 20:21:00,
2013-06-16 15:26:00,86.3,45.3,29.83,WNW,291,17.0,25.0,24,0.00,,SCT090,0.00,VWS V14.01,2013-06-16 20:26:00,
2013-06-16 15:30:00,85.7,47.9,29.83,West,271,17.0,29.0,27,0.00,,,0.00,VWS V15.00,2013-06-16 20:30:00,
2013-06-16 15:31:00,86.1,46.2,29.83,NW,314,13.0,26.0,25,0.00,,SCT090,0.00,VWS V14.01,2013-06-16 20:31:00,
2013-06-16 15:36:00,86.1,44.0,29.83,WNW,303,8.0,23.0,23,0.00,,SCT090,0.00,VWS V14.01,2013-06-16 20:36:00,
2013-06-16 15:41:00,86.5,44.3,29.83,NW,315,14.0,25.0,23,0.00,,CLR,0.00,VWS V14.01,2013-06-16 20:41:00,
2013-06-16 15:45:00,85.1,45.4,29.83,NW,304,18.0,23.0,25,0.00,,,0.00,VWS V15.00,2013-06-16 20:45:00,
2013-06-16 15:47:00,85.9,45.0,29.82,WSW,254,4.0,25.0,24,0.00,,CLR,0.00,VWS V14.01,2013-06-16 20:47:00,
2013-06-16 15:52:00,86.5,46.5,29.82,WNW,293,13.0,18.0,25,0.00,,CLR,0.00,VWS V14.01,2013-06-16 20:52:00,
2013-06-16 15:57:00,86.1,46.2,29.82,WNW,288,17.0,26.0,25,0.00,,CLR,0.00,VWS V14.01,2013-06-16 20:57:00,
2013-06-16 16:00:00,85.7,44.8,29.83,WNW,284,15.0,25.0,24,0.00,,,0.00,VWS V15.00,2013-06-16 21:00:00,
2013-06-16 16:02:00,85.3,44.5,29.82,WNW,297,15.0,26.0,24,0.00,,CLR,0.00,VWS V14.01,2013-06-16 21:02:00,
2013-06-16 16:07:00,85.1,45.4,29.82,West,270,5.0,22.0,25,0.00,,CLR,0.00,VWS V14.01,2013-06-16 21:07:00,
2013-06-16 16:12:00,85.9,47.1,29.82,West,266,14.0,25.0,26,0.00,,CLR,0.00,VWS V14.01,2013-06-16 21:12:00,
2013-06-16 16:15:00,86.1,44.0,29.83,WNW,294,4.0,23.0,23,0.00,,,0.00,VWS V15.00,2013-06-16 21:15:00,
2013-06-16 16:17:00,86.1,46.2,29.81,SW,233,11.0,25.0,25,0.00,,CLR,0.00,VWS V14.01,2013-06-16 21:17:00,
2013-06-16 16:22:00,86.1,46.2,29.81,West,266,11.0,20.0,25,0.00,,CLR,0.00,VWS V14.01,2013-06-16 21:22:00,
2013-06-16 16:27:00,86.3,46.4,29.81,WSW,256,12.0,20.0,25,0.00,,CLR,0.00,VWS V14.01,2013-06-16 21:27:00,
2013-06-16 16:30:00,86.1,45.1,29.83,NW,317,12.0,26.0,24,0.00,,,0.00,VWS V15.00,2013-06-16 21:30:00,
2013-06-16 16:32:00,86.5,46.5,29.80,WNW,291,4.0,20.0,25,0.00,,CLR,0.00,VWS V14.01,2013-06-16 21:32:00,
2013-06-16 16:37:00,86.7,47.8,29.80,WSW,251,5.0,16.0,26,0.00,,CLR,0.00,VWS V14.01,2013-06-16 21:37:00,
2013-06-16 16:42:00,86.7,46.7,29.80,WNW,288,10.0,21.0,25,0.00,,CLR,0.00,VWS V14.01,2013-06-16 21:42:00,
2013-06-16 16:45:00,85.9,45.0,29.82,West,279,16.0,25.0,24,0.00,,,0.00,VWS V15.00,2013-06-16 21:45:00,
2013-06-16 16:47:00,86.7,47.8,29.80,WSW,255,4.0,21.0,26,0.00,,CLR,0.00,VWS V14.01,2013-06-16 21:47:00,
2013-06-16 16:52:00,87.0,48.0,29.80,WNW,284,16.0,20.0,26,0.00,,CLR,0.00,VWS V14.01,2013-06-16 21:52:00,
2013-06-16 16:57:00,87.0,47.0,29.80,West,266,20.0,23.0,25,0.00,,CLR,0.00,VWS V14.01,2013-06-16 21:57:00,
2013-06-16 17:00:00,85.3,45.5,29.82,WNW,298,13.0,26.0,25,0.00,,,0.00,VWS V15.00,2013-06-16 22:00:00,
2013-06-16 17:02:00,86.5,46.5,29.79,WSW,251,14.0,24.0,25,0.00,,CLR,0.00,VWS V14.01,2013-06-16 22:02:00,
2013-06-16 17:07:00,86.3,47.4,29.79,West,281,14.0,19.0,26,0.00,,CLR,0.00,VWS V14.01,2013-06-16 22:07:00,
2013-06-16 17:12:00,85.9,46.0,29.79,WNW,286,7.0,19.0,25,0.00,,CLR,0.00,VWS V14.01,2013-06-16 22:12:00,
2013-06-16 17:15:00,86.1,46.2,29.81,WNW,291,17.0,25.0,25,0.00,,,0.00,VWS V15.00,2013-06-16 22:15:00,
2013-06-16 17:17:00,85.7,44.8,29.79,WSW,253,11.0,24.0,24,0.00,,CLR,0.00,VWS V14.01,2013-06-16 22:17:00,
2013-06-16 17:22:00,85.7,46.9,29.79,WSW,242,9.0,20.0,26,0.00,,CLR,0.00,VWS V14.01,2013-06-16 22:22:00,
2013-06-16 17:27:00,85.7,46.9,29.79,WSW,248,16.0,20.0,26,0.00,,CLR,0.00,VWS V14.01,2013-06-16 22:27:00,
2013-06-16 17:30:00,86.5,46.5,29.80,WNW,290,10.0,20.0,25,0.00,,,0.00,VWS V15.00,2013-06-16 22:30:00,
2013-06-16 17:32:00,85.5,44.6,29.79,West,260,7.0,20.0,24,0.00,,CLR,0.00,VWS V14.01,2013-06-16 22:32:00,
2013-06-16 17:37:00,85.5,45.7,29.79,WNW,294,14.0,17.0,25,0.00,,CLR,0.00,VWS V14.01,2013-06-16 22:37:00,
2013-06-16 17:42:00,85.1,45.4,29.79,WNW,292,6.0,20.0,25,0.00,,CLR,0.00,VWS V14.01,2013-06-16 22:42:00,
2013-06-16 17:45:00,86.7,47.8,29.80,WSW,257,12.0,21.0,26,0.00,,,0.00,VWS V15.00,2013-06-16 22:45:00,
2013-06-16 17:47:00,84.9,45.2,29.79,West,275,6.0,20.0,25,0.00,,CLR,0.00,VWS V14.01,2013-06-16 22:47:00,
2013-06-16 17:52:00,84.7,47.1,29.79,WNW,293,13.0,16.0,27,0.00,,CLR,0.00,VWS V14.01,2013-06-16 22:52:00,
2013-06-16 17:57:00,84.5,45.9,29.79,West,262,13.0,18.0,26,0.00,,CLR,0.00,VWS V14.01,2013-06-16 22:57:00,
2013-06-16 18:00:00,86.5,46.5,29.79,WNW,283,6.0,24.0,25,0.00,,,0.00,VWS V15.00,2013-06-16 23:00:00,
2013-06-16 18:02:00,84.5,45.9,29.78,WNW,297,3.0,6.0,26,0.00,,CLR,0.00,VWS V14.01,2013-06-16 23:02:00,
2013-06-16 18:07:00,84.5,45.9,29.78,WNW,291,10.0,19.0,26,0.00,,CLR,0.00,VWS V14.01,2013-06-16 23:07:00,
2013-06-16 18:12:00,84.3,47.7,29.78,WNW,287,9.0,19.0,28,0.00,,CLR,0.00,VWS V14.01,2013-06-16 23:12:00,
2013-06-16 18:15:00,85.7,44.8,29.79,WSW,253,19.0,24.0,24,0.00,,,0.00,VWS V15.00,2013-06-16 23:15:00,
2013-06-16 18:17:00,84.1,45.5,29.77,WNW,299,4.0,6.0,26,0.00,,CLR,0.00,VWS V14.01,2013-06-16 23:17:00,
2013-06-16 18:22:00,84.0,46.5,29.77,WNW,288,10.0,16.0,27,0.00,,CLR,0.00,VWS V14.01,2013-06-16 23:22:00,
2013-06-16 18:27:00,84.0,47.4,29.77,WNW,287,5.0,16.0,28,0.00,,CLR,0.00,VWS V14.01,2013-06-16 23:27:00,
2013-06-16 18:30:00,85.5,44.6,29.79,West,260,7.0,20.0,24,0.00,,,0.00,VWS V15.00,2013-06-16 23:30:00,
2013-06-16 18:32:00,83.8,46.3,29.77,WNW,290,6.0,10.0,27,0.00,,CLR,0.00,VWS V14.01,2013-06-16 23:32:00,
2013-06-16 18:38:00,83.8,46.3,29.77,West,264,15.0,15.0,27,0.00,,CLR,0.00,VWS V14.01,2013-06-16 23:38:00,
2013-06-16 18:43:00,83.6,46.1,29.77,West,259,10.0,15.0,27,0.00,,CLR,0.00,VWS V14.01,2013-06-16 23:43:00,
2013-06-16 18:45:00,84.9,45.2,29.79,West,275,6.0,20.0,25,0.00,,,0.00,VWS V15.00,2013-06-16 23:45:00,
2013-06-16 18:48:00,83.4,47.8,29.78,WSW,239,9.0,12.0,29,0.00,,CLR,0.00,VWS V14.01,2013-06-16 23:48:00,
2013-06-16 18:53:00,83.2,49.5,29.78,WSW,241,12.0,12.0,31,0.00,,CLR,0.00,VWS V14.01,2013-06-16 23:53:00,
2013-06-16 18:58:00,82.6,46.2,29.78,WSW,246,5.0,15.0,28,0.00,,CLR,0.00,VWS V14.01,2013-06-16 23:58:00,
2013-06-16 19:00:00,84.5,47.8,29.78,WNW,297,6.0,18.0,28,0.00,,,0.00,VWS V15.00,2013-06-17 00:00:00,
2013-06-16 19:03:00,82.0,47.5,29.78,SW,231,7.0,12.0,30,0.00,,CLR,0.00,VWS V14.01,2013-06-17 00:03:00,
2013-06-16 19:08:00,81.1,47.6,29.78,SW,227,12.0,18.0,31,0.00,,CLR,0.00,VWS V14.01,2013-06-17 00:08:00,
2013-06-16 19:13:00,80.3,48.6,29.78,SW,232,27.0,28.0,33,0.00,,CLR,0.00,VWS V14.01,2013-06-17 00:13:00,
2013-06-16 19:15:00,84.1,45.5,29.77,WNW,301,6.0,19.0,26,0.00,,,0.00,VWS V15.00,2013-06-17 00:15:00,
2013-06-16 19:18:00,79.6,48.0,29.80,WSW,258,24.0,28.0,33,0.00,,CLR,0.00,VWS V14.01,2013-06-17 00:18:00,
2013-06-16 19:23:00,79.4,49.4,29.80,WSW,248,9.0,28.0,35,0.00,,CLR,0.00,VWS V14.01,2013-06-17 00:23:00,
2013-06-16 19:28:00,79.0,49.0,29.80,West,263,26.0,31.0,35,0.00,,CLR,0.00,VWS V14.01,2013-06-17 00:28:00,
2013-06-16 19:30:00,83.8,46.3,29.77,West,271,10.0,16.0,27,0.00,,,0.00,VWS V15.00,2013-06-17 00:30:00,
2013-06-16 19:33:00,78.3,49.2,29.80,WSW,244,11.0,16.0,36,0.00,,CLR,0.00,VWS V14.01,2013-06-17 00:33:00,
2013-06-16 19:38:00,77.6,49.3,29.80,West,277,15.0,29.0,37,0.00,,CLR,0.00,VWS V14.01,2013-06-17 00:38:00,
2013-06-16 19:43:00,77.2,49.7,29.80,West,260,19.0,29.0,38,0.00,,SCT110,0.00,VWS V14.01,2013-06-17 00:43:00,
2013-06-16 19:45:00,83.4,46.9,29.78,SW,234,8.0,15.0,28,0.00,,,0.00,VWS V15.00,2013-06-17 00:45:00,
2013-06-16 19:48:00,76.7,49.9,29.80,West,281,12.0,18.0,39,0.00,,SCT110,0.00,VWS V14.01,2013-06-17 00:48:00,
2013-06-16 19:53:00,76.3,49.5,29.80,WSW,245,15.0,21.0,39,0.00,,SCT110,0.00,VWS V14.01,2013-06-17 00:53:00,
2013-06-16 19:58:00,76.1,50.7,29.80,WSW,247,13.0,21.0,41,0.00,,SCT110,0.00,VWS V14.01,2013-06-17 00:58:00,
2013-06-16 20:00:00,82.0,47.5,29.78,SW,222,12.0,15.0,30,0.00,,,0.00,VWS V15.00,2013-06-17 01:00:00,
2013-06-16 20:03:00,75.8,50.5,29.79,WSW,242,14.0,14.0,41,0.00,,SCT120,0.00,VWS V14.01,2013-06-17 01:03:00,
2013-06-16 20:08:00,75.6,50.9,29.79,WSW,251,6.0,16.0,42,0.00,,SCT120,0.00,VWS V14.01,2013-06-17 01:08:00,
2013-06-16 20:13:00,75.1,51.1,29.79,WSW,243,9.0,16.0,43,0.00,,SCT120,0.00,VWS V14.01,2013-06-17 01:13:00,
2013-06-16 20:15:00,79.8,48.2,29.80,West,264,17.0,33.0,33,0.00,,,0.00,VWS V15.00,2013-06-17 01:15:00,
2013-06-16 20:18:00,74.7,51.4,29.79,WSW,246,7.0,9.0,44,0.00,,SCT120,0.00,VWS V14.01,2013-06-17 01:18:00,
2013-06-16 20:23:00,74.2,51.5,29.79,WSW,245,8.0,10.0,45,0.00,,SCT120,0.00,VWS V14.01,2013-06-17 01:23:00,
2013-06-16 20:28:00,73.9,51.8,29.79,WSW,243,4.0,10.0,46,0.00,,SCT120,0.00,VWS V14.01,2013-06-17 01:28:00,
2013-06-16 20:30:00,78.3,49.2,29.80,WSW,258,11.0,31.0,36,0.00,,,0.00,VWS V15.00,2013-06-17 01:30:00,
2013-06-16 20:33:00,73.3,51.9,29.79,WSW,242,4.0,5.0,47,0.00,,CLR,0.00,VWS V14.01,2013-06-17 01:33:00,
2013-06-16 20:38:00,72.8,53.1,29.79,WSW,242,6.0,6.0,50,0.00,,CLR,0.00,VWS V14.01,2013-06-17 01:38:00,
2013-06-16 20:43:00,72.1,52.5,29.79,WSW,241,5.0,7.0,50,0.00,,CLR,0.00,VWS V14.01,2013-06-17 01:43:00,
2013-06-16 20:45:00,76.8,49.3,29.80,WSW,249,18.0,29.0,38,0.00,,,0.00,VWS V15.00,2013-06-17 01:45:00,
2013-06-16 20:48:00,71.5,52.4,29.79,WSW,241,5.0,5.0,51,0.00,,CLR,0.00,VWS V14.01,2013-06-17 01:48:00,
2013-06-16 20:53:00,70.8,51.8,29.79,WSW,241,6.0,6.0,51,0.00,,CLR,0.00,VWS V14.01,2013-06-17 01:53:00,
2013-06-16 20:58:00,70.3,51.9,29.79,WSW,241,5.0,6.0,52,0.00,,CLR,0.00,VWS V14.01,2013-06-17 01:58:00,
2013-06-16 21:00:00,75.8,50.5,29.79,SW,234,11.0,21.0,41,0.00,,,0.00,VWS V15.00,2013-06-17 02:00:00,
2013-06-16 21:03:00,69.8,52.9,29.79,WSW,241,6.0,6.0,55,0.00,,CLR,0.00,VWS V14.01,2013-06-17 02:03:00,
2013-06-16 21:08:00,69.3,52.5,29.79,WSW,240,6.0,7.0,55,0.00,,CLR,0.00,VWS V14.01,2013-06-17 02:08:00,
2013-06-16 21:14:00,68.8,52.0,29.79,WSW,239,5.0,7.0,55,0.00,,CLR,0.00,VWS V14.01,2013-06-17 02:14:00,
2013-06-16 21:15:00,74.7,51.4,29.79,WSW,247,9.0,16.0,44,0.00,,,0.00,VWS V15.00,2013-06-17 02:15:00,
2013-06-16 21:19:00,68.4,52.1,29.78,WSW,239,5.0,6.0,56,0.00,,CLR,0.00,VWS V14.01,2013-06-17 02:19:00,
2013-06-16 21:24:00,68.1,52.8,29.78,WSW,239,6.0,6.0,58,0.00,,CLR,0.00,VWS V14.01,2013-06-17 02:24:00,
2013-06-16 21:29:00,67.8,53.0,29.78,WSW,237,6.0,7.0,59,0.00,,CLR,0.00,VWS V14.01,2013-06-17 02:29:00,
2013-06-16 21:30:00,73.5,51.5,29.79,WSW,242,4.0,10.0,46,0.00,,,0.00,VWS V15.00,2013-06-17 02:30:00,
2013-06-16 21:34:00,67.4,53.0,29.78,SW,229,6.0,9.0,60,0.00,,CLR,0.00,VWS V14.01,2013-06-17 02:34:00,
2013-06-16 21:39:00,67.3,53.0,29.78,SW,216,8.0,10.0,60,0.00,,CLR,0.00,VWS V14.01,2013-06-17 02:39:00,
2013-06-16 21:44:00,66.9,53.0,29.78,SSW,209,9.0,10.0,61,0.00,,CLR,0.00,VWS V14.01,2013-06-17 02:44:00,
2013-06-16 21:45:00,71.5,51.9,29.79,WSW,241,5.0,7.0,50,0.00,,,0.00,VWS V15.00,2013-06-17 02:45:00,
2013-06-16 21:49:00,66.4,51.2,29.79,SSW,206,9.0,9.0,58,0.00,,CLR,0.00,VWS V14.01,2013-06-17 02:49:00,
2013-06-16 21:54:00,66.1,53.2,29.79,SSW,201,7.0,10.0,63,0.00,,CLR,0.00,VWS V14.01,2013-06-17 02:54:00,
2013-06-16 21:59:00,66.0,53.5,29.79,SSW,199,10.0,11.0,64,0.00,,CLR,0.00,VWS V14.01,2013-06-17 02:59:00,
2013-06-16 22:00:00,69.9,52.5,29.79,WSW,241,5.0,6.0,54,0.00,,,0.00,VWS V15.00,2013-06-17 03:00:00,
2013-06-16 22:04:00,66.0,53.5,29.80,SSW,197,10.0,10.0,64,0.00,,CLR,0.00,VWS V14.01,2013-06-17 03:04:00,
2013-06-16 22:09:00,65.8,53.3,29.80,SSW,196,11.0,12.0,64,0.00,,CLR,0.00,VWS V14.01,2013-06-17 03:09:00,
2013-06-16 22:14:00,65.6,53.1,29.80,SSW,196,10.0,12.0,64,0.00,,CLR,0.00,VWS V14.01,2013-06-17 03:14:00,
2013-06-16 22:15:00,68.6,52.3,29.78,WSW,239,5.0,7.0,56,0.00,,,0.00,VWS V15.00,2013-06-17 03:15:00,
2013-06-16 22:19:00,65.8,53.3,29.80,SSW,197,9.0,11.0,64,0.00,,CLR,0.00,VWS V14.01,2013-06-17 03:19:00,
2013-06-16 22:24:00,66.0,53.1,29.80,SSW,196,10.0,11.0,63,0.00,,CLR,0.00,VWS V14.01,2013-06-17 03:24:00,
2013-06-16 22:29:00,66.0,53.1,29.80,SSW,194,10.0,11.0,63,0.00,,CLR,0.00,VWS V14.01,2013-06-17 03:29:00,
2013-06-16 22:30:00,67.6,53.2,29.78,SW,236,6.0,7.0,60,0.00,,,0.00,VWS V15.00,2013-06-17 03:30:00,
2013-06-16 22:34:00,66.1,53.6,29.80,SSW,203,12.0,12.0,64,0.00,,CLR,0.00,VWS V14.01,2013-06-17 03:34:00,
2013-06-16 22:39:00,66.1,54.0,29.80,SSW,203,9.0,12.0,65,0.00,,CLR,0.00,VWS V14.01,2013-06-17 03:39:00,
2013-06-16 22:44:00,66.1,53.2,29.80,SSW,206,11.0,13.0,63,0.00,,SCT120,0.00,VWS V14.01,2013-06-17 03:44:00,
2013-06-16 22:45:00,66.6,53.2,29.79,SSW,206,7.0,10.0,62,0.00,,,0.00,VWS V15.00,2013-06-17 03:45:00,
2013-06-16 22:49:00,66.1,53.2,29.80,SSW,211,10.0,14.0,63,0.00,,SCT120,0.00,VWS V14.01,2013-06-17 03:49:00,
2013-06-16 22:54:00,65.8,52.9,29.80,SW,214,11.0,14.0,63,0.00,,SCT120,0.00,VWS V14.01,2013-06-17 03:54:00,
2013-06-16 22:59:00,65.8,52.9,29.80,SW,217,8.0,14.0,63,0.00,,SCT120,0.00,VWS V14.01,2013-06-17 03:59:00,
2013-06-16 23:00:00,66.0,53.1,29.80,SSW,197,10.0,11.0,63,0.00,,,0.00,VWS V15.00,2013-06-17 04:00:00,
2013-06-16 23:01:00,65.8,52.9,29.80,SW,216,9.0,14.0,63,0.00,,SCT120,0.00,VWS V14.01,2013-06-17 04:01:00,
2013-06-16 23:02:00,65.8,53.3,29.80,SW,216,7.0,14.0,64,0.00,,SCT120,0.00,VWS V14.01,2013-06-17 04:02:00,
2013-06-16 23:04:00,65.8,53.3,29.80,SW,215,6.0,9.0,64,0.00,,SCT120,0.00,VWS V14.01,2013-06-17 04:04:00,
2013-06-16 23:06:00,65.6,52.7,29.80,SW,215,5.0,9.0,63,0.00,,SCT120,0.00,VWS V14.01,2013-06-17 04:06:00,
2013-06-16 23:11:00,65.5,53.0,29.80,SW,214,10.0,10.0,64,0.00,,SCT120,0.00,VWS V14.01,2013-06-17 04:11:00,
2013-06-16 23:15:00,65.6,53.1,29.80,SSW,196,10.0,12.0,64,0.00,,,0.00,VWS V15.00,2013-06-17 04:15:00,
2013-06-16 23:16:00,65.3,52.8,29.80,SW,214,10.0,10.0,64,0.00,,SCT120,0.00,VWS V14.01,2013-06-17 04:16:00,
2013-06-16 23:21:00,65.2,53.2,29.80,SSW,213,6.0,10.0,65,0.00,,SCT120,0.00,VWS V14.01,2013-06-17 04:21:00,
2013-06-16 23:26:00,65.0,53.0,29.80,SSW,212,9.0,10.0,65,0.00,,SCT120,0.00,VWS V14.01,2013-06-17 04:26:00,
2013-06-16 23:30:00,66.1,53.2,29.80,SSW,195,9.0,11.0,63,0.00,,,0.00,VWS V15.00,2013-06-17 04:30:00,
2013-06-16 23:31:00,64.7,53.1,29.80,SSW,212,6.0,10.0,66,0.00,,SCT120,0.00,VWS V14.01,2013-06-17 04:31:00,
2013-06-16 23:36:00,64.3,52.7,29.80,SSW,211,6.0,8.0,66,0.00,,SCT120,0.00,VWS V14.01,2013-06-17 04:36:00,
2013-06-16 23:41:00,64.2,52.6,29.80,SSW,211,5.0,8.0,66,0.00,,SCT120,0.00,VWS V14.01,2013-06-17 04:41:00,
2013-06-16 23:45:00,66.1,53.2,29.80,SSW,210,10.0,13.0,63,0.00,,,0.00,VWS V15.00,2013-06-17 04:45:00,
2013-06-16 23:46:00,63.9,52.7,29.79,SSW,211,5.0,8.0,67,0.00,,SCT120,0.00,VWS V14.01,2013-06-17 04:46:00,
2013-06-16 23:52:00,63.7,53.0,29.79,SSW,211,5.0,6.0,68,0.00,,SCT120,0.00,VWS V14.01,2013-06-17 04:52:00,
2013-06-16 23:57:00,63.4,52.7,29.79,SSW,211,4.0,7.0,68,0.00,,SCT120,0.00,VWS V14.01,2013-06-17 04:57:00,